This is the latest recevied weather packets stored in our database for station/object K1LVA. If no packets are shown the sender has not sent any weather packets the latest 10 day(s).
| Time | Temp. | Humidity | Pressure | Rain* | Wind** | Luminosity | Snow |
|---|---|---|---|---|---|---|---|
| 1778199205 | 22.22° C | 84% | 1010 hPa | 0 mm | - | 1 W/m² | - |
| 1778198901 | 22.78° C | 83% | 1009.8 hPa | 0 mm | - | 4 W/m² | - |
| 1778198598 | 22.78° C | 82% | 1009.8 hPa | 0 mm | - | 7 W/m² | - |
| 1778198295 | 23.33° C | 82% | 1009.8 hPa | 0 mm | - | 13 W/m² | - |
| 1778197992 | 23.33° C | 81% | 1009.6 hPa | 0 mm | - | 16 W/m² | - |
| 1778197689 | 23.33° C | 80% | 1009.7 hPa | 0 mm | - | 19 W/m² | - |
| 1778197386 | 23.89° C | 79% | 1009.6 hPa | 0 mm | - | 23 W/m² | - |
| 1778197082 | 23.89° C | 79% | 1009.6 hPa | 0 mm | - | 26 W/m² | - |
| 1778196780 | 23.89° C | 79% | 1009.4 hPa | 0 mm | - | 29 W/m² | - |
| 1778196478 | 23.89° C | 78% | 1009.5 hPa | 0 mm | - | 32 W/m² | - |
| 1778196174 | 24.44° C | 78% | 1009.5 hPa | 0 mm | - | 35 W/m² | - |
| 1778195870 | 24.44° C | 77% | 1009.5 hPa | 0 mm | - | 36 W/m² | - |
| 1778195567 | 24.44° C | 77% | 1009.4 hPa | 0 mm | - | 42 W/m² | - |
| 1778195264 | 25° C | 77% | 1009.4 hPa | 0 mm | - | 50 W/m² | - |
| 1778194962 | 25.56° C | 76% | 1009.1 hPa | 0 mm | - | 46 W/m² | - |
| 1778194661 | 25.56° C | 76% | 1009.3 hPa | 0 mm | - | 103 W/m² | - |
| 1778194357 | 25.56° C | 75% | 1009.3 hPa | 0 mm | - | 121 W/m² | - |
| 1778194053 | 25.56° C | 76% | 1009.5 hPa | 0 mm | - | 135 W/m² | - |
| 1778193750 | 25.56° C | 75% | 1009.5 hPa | 0 mm | - | 142 W/m² | - |
| 1778193447 | 25.56° C | 75% | 1009.1 hPa | 0 mm | - | 173 W/m² | - |
| 1778193143 | 25.56° C | 76% | 1009.5 hPa | 0 mm | - | 195 W/m² | - |
| 1778192840 | 25.56° C | 76% | 1009.2 hPa | 0 mm | - | 228 W/m² | - |
| 1778192536 | 25.56° C | 76% | 1009.2 hPa | 0 mm | - | 234 W/m² | - |
| 1778192233 | 25.56° C | 77% | 1009.2 hPa | 0 mm | - | 246 W/m² | - |
| 1778191929 | 25.56° C | 78% | 1009.1 hPa | 0 mm | - | 268 W/m² | - |
* Rain latest hour (hover to see other rain measurements)
** Current wind speed in m/s (hover to see current wind gust speed)